[[{"header":{"parameterUnit":"m.s-1","parameterCategory":2,"la1":30.2992,"la2":30.254,"lo1":-89.0895,"lo2":-89.0443,"dy":0.0025,"dx":0.0025,"nx":19,"ny":19,"refTime":"2026-05-07T21:00:00:Z","depth":"0","parameterNumber":2,"parameterNumberName":"U-component_of_CURRENTS"},"data":[0,0,0,0.2129,0.2129,0.209,0.209,0.2037,0.2036,0,0,0,0,0,0,0,0,0,0,0,0.2135,0.2135,0.2129,0.2129,0.209,0.209,0.2037,0.2036,0,0,0,0,0,0,0,0,0,0,0,0.2135,0.2135,0.2134,0.2128,0.209,0.209,0.2037,0.2065,0,0,0,0,0,0,0,0,0,0,0.2102,0.2107,0.2135,0.2134,0.2128,0.2091,0.209,0.2066,0.2063,0.2055,0,0.2047,0,0.2046,0.2033,0.2033,0,0,0,0.2121,0.2109,0.2105,0.2134,0.2128,0.2091,0.2106,0.2065,0.2061,0.2051,0.2046,0.2044,0.2045,0.2033,0.2033,0.1988,0.1988,0,0,0.2124,0.2122,0.2108,0.2103,0.2115,0.2107,0.2105,0.2062,0.2054,0.2046,0.2043,0.2045,0.2033,0.2032,0.1988,0.1988,0,0,0,0.2134,0.2123,0.212,0.2105,0.2102,0.2106,0.2103,0.2055,0.2056,0.2043,0.2044,0.2032,0.2032,0.1988,0.1988,0.2004,0,0,0,0.2135,0.213,0.2121,0.2118,0.2103,0.2078,0.2097,0.2059,0.2054,0.2044,0.2032,0.2031,0.1989,0.1988,0.2004,0.2052,0,0,0,0.2137,0.213,0.2127,0.2118,0.2107,0.2079,0.2077,0.2057,0.2055,0.2033,0.2031,0.1989,0.1988,0.2004,0.205,0.2232,0,0,0,0.2136,0.21,0.2126,0.2089,0.2107,0.2072,0.2077,0.2045,0.2023,0.2032,0.1988,0.1988,0.2004,0.2049,0.2228,0.2632,0.2682,0,0,0.2086,0.2094,0.2073,0.2095,0.2056,0.2077,0.2044,0.2021,0.2017,0.2001,0.2,0.2004,0.205,0.2231,0.261,0.2663,0,0,0,0.2054,0.2038,0.2029,0.2018,0.2012,0.2025,0.2007,0.2015,0.2008,0.2005,0.1992,0.2022,0.2136,0.237,0.241,0.248,0.1987,0.1987,0.1987,0.198,0.1989,0.1956,0.1966,0.1961,0.1979,0.2001,0.2013,0.1989,0.1996,0.2024,0.2158,0.24,0.2437,0.2498,0.199,0.199,0.199,0.199,0.1916,0.1936,0.1926,0.1903,0.1939,0.1932,0.1991,0.2008,0.2117,0.2034,0.2146,0.2359,0.2484,0.2533,0.199,0.199,0.199,0.199,0.199,0.1888,0.1924,0.188,0.1894,0.1905,0.1941,0.2071,0.2104,0.2164,0.2241,0.2613,0.2618,0.2686,0.2335,0.2336,0.2337,0.2338,0.2338,0.2339,0.1953,0.1917,0.1954,0.1917,0.1957,0.2023,0.215,0.2303,0.2611,0.2714,0.2719,0.2768,0.2267,0.2281,0.2354,0.2351,0.2349,0.2348,0.2347,0.2118,0.2061,0.2135,0.2161,0.2199,0.2328,0.2417,0.2907,0.3074,0.3343,0.3401,0.3012,0.3088,0.3059,0.3094,0.3373,0.3373,0.3374,0.3374,0.2281,0.2236,0.2406,0.2472,0.2508,0.2516,0.295,0.3265,0.3704,0.3913,0.3849,0.3813,0.3769,0.3875,0.3827,0.3873,0.4343,0.4344,0.4344,0.2511,0.2516,0.2693,0.2649,0.2674,0.2759,0.3158,0.354,0.415,0.4367,0.386,0.382,0.3727,0.3652,0.3775,0.3703,0.376,0,0]},{"header":{"parameterUnit":"m.s-1","parameterCategory":2,"la1":30.2992,"la2":30.254,"lo1":-89.0895,"lo2":-89.0443,"dy":0.0025,"dx":0.0025,"nx":19,"ny":19,"refTime":"2026-05-07T21:00:00:Z","depth":"0","parameterNumber":3,"parameterNumberName":"V-component_of_CURRENTS"},"data":[0,0,0,-0.179,-0.1791,-0.184,-0.184,-0.1847,-0.1847,0,0,0,0,0,0,0,0,0,0,0,-0.1764,-0.1764,-0.179,-0.1791,-0.184,-0.1841,-0.1847,-0.1847,0,0,0,0,0,0,0,0,0,0,0,-0.1764,-0.1764,-0.1764,-0.1791,-0.184,-0.1841,-0.1847,-0.1826,0,0,0,0,0,0,0,0,0,0,-0.1786,-0.176,-0.1764,-0.1764,-0.1792,-0.184,-0.1841,-0.1825,-0.1827,-0.1807,0,-0.1805,0,-0.1826,-0.1846,-0.1846,0,0,0,-0.1797,-0.1758,-0.1779,-0.1764,-0.1792,-0.184,-0.182,-0.1827,-0.1828,-0.1809,-0.1806,-0.1807,-0.1826,-0.1846,-0.1845,-0.1818,-0.1817,0,0,-0.1794,-0.1768,-0.1778,-0.178,-0.1791,-0.1818,-0.1821,-0.1828,-0.1818,-0.1806,-0.1808,-0.1826,-0.1845,-0.1845,-0.1818,-0.1817,0,0,0,-0.1783,-0.1765,-0.1787,-0.1779,-0.1792,-0.1819,-0.1823,-0.1818,-0.1827,-0.1808,-0.1827,-0.1845,-0.1845,-0.1818,-0.1818,-0.171,0,0,0,-0.1781,-0.1759,-0.1785,-0.177,-0.1792,-0.1812,-0.1812,-0.1827,-0.1829,-0.1827,-0.1845,-0.1845,-0.1818,-0.1818,-0.1713,-0.1584,0,0,0,-0.1764,-0.1757,-0.1761,-0.1768,-0.1789,-0.1813,-0.1823,-0.1828,-0.1839,-0.1846,-0.1845,-0.1818,-0.1818,-0.1716,-0.1593,-0.1362,0,0,0,-0.174,-0.1706,-0.1759,-0.1728,-0.1789,-0.1794,-0.1823,-0.1827,-0.1829,-0.1845,-0.1818,-0.1818,-0.1717,-0.1598,-0.137,-0.0974,-0.0905,0,0,-0.168,-0.1698,-0.1681,-0.173,-0.1706,-0.1788,-0.1761,-0.178,-0.1818,-0.1813,-0.1813,-0.1712,-0.1593,-0.1364,-0.0954,-0.0884,0,0,0,-0.1652,-0.163,-0.1634,-0.1635,-0.1673,-0.1676,-0.1735,-0.1746,-0.1746,-0.1818,-0.1735,-0.1662,-0.152,-0.13,-0.1247,-0.1251,-0.1816,-0.1816,-0.1816,-0.1507,-0.1544,-0.1502,-0.1542,-0.1553,-0.1603,-0.1587,-0.1615,-0.1692,-0.168,-0.1595,-0.1368,-0.1142,-0.1095,-0.111,-0.1663,-0.1663,-0.1663,-0.1662,-0.1369,-0.1304,-0.1389,-0.1354,-0.1398,-0.1388,-0.1426,-0.1463,-0.1357,-0.1512,-0.138,-0.1226,-0.1027,-0.1065,-0.1656,-0.1657,-0.1658,-0.1658,-0.1659,-0.1207,-0.1171,-0.1198,-0.116,-0.1147,-0.1215,-0.1051,-0.1131,-0.118,-0.1089,-0.076,-0.0758,-0.0757,-0.0998,-0.0996,-0.0995,-0.0993,-0.0992,-0.0991,-0.0976,-0.1009,-0.0917,-0.0935,-0.0893,-0.0825,-0.0788,-0.0659,-0.0493,-0.0527,-0.0524,-0.065,-0.1162,-0.1149,-0.0967,-0.0972,-0.0975,-0.0977,-0.0979,-0.0688,-0.0708,-0.0576,-0.0521,-0.0424,-0.0179,-0.0202,0.0182,0.0263,0.0452,0.0141,-0.0206,-0.0154,-0.0196,-0.016,0.0269,0.0269,0.0269,0.0269,-0.0455,-0.047,-0.0244,-0.0109,0.0063,0.0144,0.0748,0.0971,0.0946,0.09,0.0639,0.0504,0.0454,0.0525,0.0466,0.0507,0.1095,0.1095,0.1095,-0.024,-0.0216,0.0003,0.0089,0.0278,0.0584,0.1204,0.1648,0.1485,0.1104,0.0556,0.0521,0.027,0.0192,0.0242,0.016,0.0203,0,0]}],[{"header":{"parameterUnit":"m.s-1","parameterCategory":2,"la1":30.2992,"la2":30.254,"lo1":-89.0895,"lo2":-89.0443,"dy":0.0025,"dx":0.0025,"nx":19,"ny":19,"refTime":"2026-05-07T21:00:00:Z","depth":"2","parameterNumber":2,"parameterNumberName":"U-component_of_CURRENTS"},"data":[0,0,0,0.2586,0.2588,0.2642,0.2642,0.2649,0.265,0,0,0,0,0,0,0,0,0,0,0,0.2549,0.255,0.2586,0.2588,0.2642,0.2642,0.2649,0.265,0,0,0,0,0,0,0,0,0,0,0,0.2549,0.255,0.255,0.2588,0.2642,0.2642,0.2649,0.2618,0,0,0,0,0,0,0,0,0,0,0.257,0.2543,0.2549,0.255,0.2589,0.2642,0.2642,0.2617,0.262,0.2616,0,0.2632,0,0.2661,0.2651,0.2651,0,0,0,0.2562,0.254,0.2575,0.255,0.259,0.2642,0.261,0.2619,0.2622,0.262,0.2633,0.2634,0.2661,0.2651,0.2651,0.2651,0.2651,0,0,0.2559,0.2536,0.2573,0.2578,0.2614,0.2609,0.2612,0.2621,0.2615,0.2633,0.2635,0.2661,0.2652,0.2652,0.2652,0.2651,0,0,0,0.2568,0.2534,0.2569,0.2576,0.2602,0.2611,0.2615,0.2614,0.2632,0.2636,0.2661,0.2652,0.2652,0.2652,0.2652,0.2658,0,0,0,0.2565,0.2542,0.2568,0.2551,0.2603,0.2616,0.2607,0.2631,0.2634,0.2661,0.2652,0.2652,0.2652,0.2652,0.2658,0.269,0,0,0,0.2545,0.2539,0.2553,0.255,0.259,0.2617,0.2634,0.2632,0.265,0.2651,0.2652,0.2652,0.2652,0.2658,0.2689,0.2815,0,0,0,0.2508,0.2527,0.2552,0.2579,0.259,0.2636,0.2634,0.2645,0.2644,0.2652,0.2652,0.2652,0.2658,0.2689,0.2812,0.2859,0.2874,0,0,0.2513,0.2526,0.2544,0.257,0.2614,0.2626,0.2644,0.2636,0.2635,0.2641,0.2641,0.2658,0.2689,0.2814,0.2835,0.2851,0,0,0,0.2534,0.2537,0.256,0.2587,0.2634,0.2646,0.2648,0.2649,0.2639,0.2641,0.2648,0.2668,0.2747,0.2768,0.2781,0.265,0.265,0.265,0.265,0.2451,0.2501,0.2525,0.2579,0.2606,0.2644,0.2663,0.2656,0.2646,0.2634,0.2664,0.2751,0.2768,0.2779,0.2638,0.2638,0.2638,0.2638,0.2638,0.2429,0.2454,0.2489,0.2533,0.2571,0.2585,0.2642,0.2647,0.2725,0.2659,0.2736,0.276,0.2794,0.2638,0.2638,0.2638,0.2638,0.2638,0.2638,0.237,0.2403,0.242,0.2478,0.2505,0.2559,0.2668,0.2683,0.2745,0.2807,0.2905,0.2905,0.282,0.2866,0.2867,0.2868,0.2868,0.2869,0.2869,0.2329,0.2358,0.2393,0.2443,0.2476,0.2553,0.2687,0.2829,0.2956,0.2949,0.295,0.2831,0.2823,0.2836,0.2879,0.2878,0.2876,0.2875,0.2875,0.2326,0.2335,0.2384,0.2418,0.2518,0.2582,0.275,0.3027,0.3184,0.3289,0.3059,0.3051,0.3084,0.3072,0.3091,0.32,0.32,0.32,0.32,0.2311,0.2328,0.238,0.2432,0.2525,0.2595,0.2747,0.2788,0.2961,0.2891,0.2902,0.2782,0.278,0.2786,0.2781,0.279,0.282,0.2818,0.2817,0.2313,0.233,0.2348,0.2404,0.2493,0.2615,0.2554,0.2323,0.2478,0.2782,0.2631,0.3214,0.3067,0.3051,0.3083,0.3066,0.309,0,0]},{"header":{"parameterUnit":"m.s-1","parameterCategory":2,"la1":30.2992,"la2":30.254,"lo1":-89.0895,"lo2":-89.0443,"dy":0.0025,"dx":0.0025,"nx":19,"ny":19,"refTime":"2026-05-07T21:00:00:Z","depth":"2","parameterNumber":3,"parameterNumberName":"V-component_of_CURRENTS"},"data":[0,0,0,0.0167,0.0164,-0.0019,-0.002,-0.0177,-0.0178,0,0,0,0,0,0,0,0,0,0,0,0.0225,0.0225,0.0167,0.0163,-0.0019,-0.0021,-0.0177,-0.0178,0,0,0,0,0,0,0,0,0,0,0,0.0226,0.0225,0.0224,0.0163,-0.0019,-0.0021,-0.0177,-0.0064,0,0,0,0,0,0,0,0,0,0,0.0102,0.014,0.0225,0.0224,0.0162,-0.0019,-0.0021,-0.0059,-0.0071,-0.0065,0,-0.0086,0,-0.0122,-0.0185,-0.0185,0,0,0,0.0139,0.0149,0.0119,0.0224,0.016,-0.0019,0.0056,-0.0067,-0.0079,-0.0079,-0.0089,-0.0095,-0.0124,-0.0185,-0.0186,-0.0217,-0.0217,0,0,0.0149,0.0171,0.0128,0.0112,0.0124,0.0062,0.0051,-0.0075,-0.0093,-0.0089,-0.0099,-0.0127,-0.0186,-0.0187,-0.0218,-0.0217,0,0,0,0.0195,0.0178,0.0148,0.0119,0.0087,0.0058,0.0044,-0.0089,-0.0093,-0.0101,-0.0129,-0.0187,-0.0188,-0.0218,-0.0217,-0.0143,0,0,0,0.0199,0.0206,0.0153,0.0161,0.0089,-0.0017,0.0034,-0.0085,-0.01,-0.0128,-0.0187,-0.0189,-0.0218,-0.0218,-0.0146,-0.0077,0,0,0,0.0232,0.0209,0.0195,0.0163,0.0097,-0.0015,-0.003,-0.009,-0.0115,-0.0185,-0.0189,-0.0219,-0.0218,-0.0148,-0.0083,-0.0014,0,0,0,0.0249,0.0255,0.0196,0.0198,0.0099,0.0067,-0.003,-0.0093,-0.0147,-0.0187,-0.0218,-0.0217,-0.0149,-0.0087,-0.0018,0.0192,0.0228,0,0,0.028,0.0258,0.0268,0.0212,0.0221,0.0089,0.0072,-0.0055,-0.0129,-0.0177,-0.0179,-0.0145,-0.0083,-0.0015,0.0245,0.028,0,0,0,0.0295,0.0298,0.0294,0.0272,0.023,0.0174,0.0044,-0.0013,-0.0106,-0.0154,-0.0147,-0.011,-0.0069,0.0049,0.0076,-0.0213,-0.0213,-0.0213,-0.0213,0.0328,0.0331,0.0353,0.0341,0.0317,0.0217,0.0166,0.0062,-0.0029,-0.0061,-0.0052,0.0052,0.0177,0.02,-0.0076,-0.0076,-0.0075,-0.0075,-0.0075,0.0389,0.0392,0.04,0.0422,0.0382,0.0346,0.0253,0.017,0.0121,0.0022,0.0056,0.0118,0.0235,-0.0069,-0.007,-0.0071,-0.0072,-0.0072,-0.0072,0.0401,0.0402,0.0426,0.0462,0.0459,0.04,0.0434,0.0319,0.0215,0.0231,0.0348,0.0349,0.0122,0.0234,0.0235,0.0236,0.0236,0.0237,0.0237,0.0377,0.0412,0.0444,0.0493,0.0511,0.0541,0.0521,0.0543,0.0544,0.0482,0.0483,0.0157,0.0147,0.014,0.0246,0.0245,0.0243,0.0243,0.0242,0.034,0.0368,0.0434,0.0475,0.0587,0.0771,0.0776,0.0949,0.092,0.0988,0.063,0.0617,0.0624,0.0603,0.0608,0.0829,0.0829,0.0829,0.0829,0.0288,0.032,0.0403,0.0507,0.0669,0.0858,0.1209,0.125,0.1121,0.0944,0.0937,0.0888,0.0865,0.0878,0.0851,0.0857,0.1142,0.1142,0.1142,0.0237,0.0284,0.0338,0.0492,0.0698,0.1031,0.1431,0.1486,0.1182,0.1137,0.0811,0.0885,0.0795,0.0765,0.0764,0.0729,0.073,0,0]}],[{"header":{"parameterUnit":"m.s-1","parameterCategory":2,"la1":30.2992,"la2":30.254,"lo1":-89.0895,"lo2":-89.0443,"dy":0.0025,"dx":0.0025,"nx":19,"ny":19,"refTime":"2026-05-07T21:00:00:Z","depth":"4","parameterNumber":2,"parameterNumberName":"U-component_of_CURRENTS"},"data":[0,0,0,0.0878,0.0882,0.1101,0.1102,0.129,0.1291,0,0,0,0,0,0,0,0,0,0,0,0.0815,0.0816,0.0878,0.0882,0.11,0.1102,0.129,0.1291,0,0,0,0,0,0,0,0,0,0,0,0.0814,0.0815,0.0817,0.0883,0.11,0.1102,0.1289,0.1153,0,0,0,0,0,0,0,0,0,0,0.0954,0.0908,0.0815,0.0817,0.0884,0.11,0.1102,0.1147,0.1161,0.1158,0,0.1193,0,0.123,0.1299,0.13,0,0,0,0.0905,0.0896,0.0942,0.0817,0.0886,0.1099,0.1008,0.1156,0.1171,0.1175,0.1196,0.1204,0.1233,0.13,0.1301,0.1455,0.1456,0,0,0.0893,0.0867,0.0931,0.0951,0.0943,0.1001,0.1015,0.1167,0.1188,0.1197,0.1209,0.1236,0.1301,0.1302,0.1454,0.1455,0,0,0,0.0843,0.0859,0.0904,0.0943,0.0981,0.1007,0.1023,0.1182,0.1194,0.1211,0.1238,0.1302,0.1303,0.1454,0.1455,0.1485,0,0,0,0.0837,0.0828,0.0898,0.0887,0.0979,0.1098,0.1035,0.1184,0.1202,0.1237,0.1302,0.1305,0.1453,0.1454,0.1483,0.1504,0,0,0,0.0804,0.0825,0.0847,0.0885,0.0967,0.1096,0.112,0.119,0.1217,0.13,0.1305,0.1452,0.1454,0.148,0.15,0.1585,0,0,0,0.0774,0.0811,0.0847,0.0893,0.0964,0.1073,0.112,0.1225,0.1298,0.1303,0.1453,0.1455,0.148,0.1497,0.1581,0.1351,0,0,0,0.0795,0.0813,0.0835,0.0871,0.0965,0.1044,0.1166,0.1283,0.1322,0.1398,0.1403,0.1484,0.15,0.1584,0.1458,0,0,0,0,0.0823,0.0847,0.0881,0.0945,0.1024,0.1139,0.1256,0.1303,0.1425,0.137,0.1512,0.1521,0.1573,0.143,0.1463,0.1463,0.1463,0.1463,0.1463,0.0821,0.0858,0.0895,0.0971,0.1071,0.1219,0.1321,0.1414,0.1447,0.1507,0.1566,0.1679,0.1528,0.1585,0.1586,0.1586,0.1586,0.1586,0.1586,0.0814,0.08,0.0898,0.0966,0.109,0.1224,0.1398,0.1467,0.1637,0.1608,0.1658,0.1495,0.159,0.1589,0.1589,0.1588,0.1588,0.1588,0.1587,0.0769,0.0754,0.0816,0.0915,0.105,0.1238,0.1416,0.1571,0.1669,0.175,0.1647,0.1728,0.1705,0.18,0.1801,0.1801,0.1802,0.1802,0.1802,0.066,0.0701,0.0739,0.0863,0.0966,0.1166,0.1437,0.1564,0.171,0.1679,0.1791,0.1752,0.1745,0.172,0.181,0.1808,0.1807,0.1807,0.1806,0.0538,0.0592,0.0633,0.0719,0.0902,0.1045,0.133,0.1526,0.1633,0.1644,0.1647,0.1652,0.1632,0.1629,0.1598,0.1656,0.1653,0.165,0,0.045,0.0474,0.0516,0.0599,0.0737,0.0953,0.1114,0.1277,0.1433,0.1389,0.1582,0.1576,0.1581,0.1546,0.154,0.1496,0,0,0,0.035,0.0394,0.0391,0.0487,0.0645,0.0881,0.1139,0.1168,0.1424,0.1451,0.1585,0.1602,0.1654,0.1832,0.1817,0.1808,0.1767,0,0]},{"header":{"parameterUnit":"m.s-1","parameterCategory":2,"la1":30.2992,"la2":30.254,"lo1":-89.0895,"lo2":-89.0443,"dy":0.0025,"dx":0.0025,"nx":19,"ny":19,"refTime":"2026-05-07T21:00:00:Z","depth":"4","parameterNumber":3,"parameterNumberName":"V-component_of_CURRENTS"},"data":[0,0,0,0.0716,0.0716,0.0724,0.0724,0.0645,0.0644,0,0,0,0,0,0,0,0,0,0,0,0.0709,0.0709,0.0715,0.0716,0.0724,0.0724,0.0645,0.0644,0,0,0,0,0,0,0,0,0,0,0,0.0709,0.0709,0.0709,0.0716,0.0724,0.0724,0.0645,0.0657,0,0,0,0,0,0,0,0,0,0,0.0659,0.0678,0.0709,0.0709,0.0717,0.0724,0.0724,0.0659,0.0657,0.0621,0,0.0634,0,0.0645,0.0638,0.0638,0,0,0,0.07,0.068,0.068,0.071,0.0717,0.0724,0.0716,0.0658,0.0655,0.0618,0.0634,0.0631,0.0643,0.0638,0.0637,0.0588,0.0588,0,0,0.0699,0.0706,0.0682,0.0679,0.0732,0.0716,0.0716,0.0657,0.0659,0.0633,0.063,0.0642,0.0637,0.0636,0.0588,0.0588,0,0,0,0.0709,0.0706,0.0709,0.0681,0.0694,0.0716,0.0717,0.0662,0.0663,0.0629,0.0641,0.0637,0.0636,0.0588,0.0588,0.0653,0,0,0,0.0708,0.0713,0.0709,0.0713,0.0696,0.0693,0.0723,0.0667,0.0661,0.0641,0.0637,0.0635,0.0588,0.0588,0.0651,0.0679,0,0,0,0.0706,0.0713,0.0718,0.0713,0.0725,0.0694,0.0692,0.0666,0.0668,0.0638,0.0635,0.0588,0.0588,0.0649,0.0675,0.0634,0,0,0,0.0706,0.0716,0.0718,0.0727,0.0725,0.0732,0.0692,0.0693,0.0675,0.0636,0.0588,0.0588,0.0648,0.0673,0.0633,0.0609,0,0,0,0.0715,0.0718,0.072,0.0722,0.0753,0.0729,0.0741,0.0704,0.0661,0.0597,0.0597,0.0651,0.0675,0.0634,0.0623,0,0,0,0,0.0719,0.0734,0.074,0.0759,0.0758,0.0771,0.0744,0.0717,0.0677,0.0654,0.0638,0.0651,0.0622,0.0605,0.0589,0.0589,0.0589,0.0589,0.0589,0.0749,0.0751,0.077,0.0784,0.0802,0.0797,0.0783,0.0738,0.0704,0.0696,0.0694,0.0696,0.0682,0.0682,0.0682,0.0682,0.0683,0.0683,0.0683,0.0769,0.0767,0.08,0.0837,0.0854,0.0878,0.0828,0.0804,0.0743,0.073,0.0698,0.0665,0.0689,0.0688,0.0687,0.0686,0.0686,0.0685,0.0685,0.0771,0.0768,0.0808,0.0868,0.092,0.0941,0.0941,0.0895,0.0802,0.0783,0.071,0.0714,0.0715,0.0756,0.0756,0.0756,0.0756,0.0756,0.0756,0.0744,0.0771,0.0838,0.0905,0.0974,0.1032,0.1004,0.0947,0.0852,0.0771,0.0792,0.0719,0.0717,0.0717,0.0755,0.0756,0.0756,0.0756,0.0756,0.0724,0.076,0.0843,0.0924,0.1045,0.1068,0.1073,0.0931,0.0838,0.0726,0.0731,0.0733,0.0691,0.0689,0.0687,0.0718,0.0718,0.0717,0,0.0715,0.0735,0.085,0.0956,0.1035,0.108,0.0997,0.091,0.0772,0.0775,0.0794,0.0807,0.0805,0.0765,0.0762,0.0764,0,0,0,0.0714,0.0752,0.0824,0.0929,0.103,0.0974,0.0962,0.0897,0.0834,0.0714,0.0712,0.0714,0.0754,0.0754,0.0692,0.0689,0.0686,0,0]}]]